Regional Weather Roundup
Issued by NWS

Home | Current Version | Previous Version | Text Only | Print | Product List | Glossary Off
Versions: 1 2 3 4 5 6 7 8 9 10 11 12 13 14 15 16 17 18 19 20 21 22 23 24 25 26 27 28 29 30 31 32 33 34 35 36 37 38 39 40 41 42 43 44 45 46 47 48 49 50

919
ASUS45 KCYS 270610
RWRWY

WYOMING REGIONAL WEATHER ROUNDUP
NATIONAL WEATHER SERVICE CHEYENNE WY
1200 AM MDT THU APR 27 2017

NOTE:  "FAIR" INDICATES FEW OR NO CLOUDS BELOW 12,000 FEET
WITH NO SIGNIFICANT WEATHER AND/OR OBSTRUCTIONS TO VISIBILITY.

WYZ001-270700-
YELLOWSTONE NATIONAL PARK

CITY           SKY/WX    TMP DP  RH WIND       PRES   REMARKS
LK YELLOWSTONE   N/A     28  28 100 CALM      29.61F
6HR MIN TEMP:  28; 6HR MAX TEMP:  30; 6HR PCP:  0.45;

W YELLOWSTONE  NOT AVBL

$$
WYZ002>013-054>058-071-098>099-270700-
NORTHERN WYOMING

CITY           SKY/WX    TMP DP  RH WIND       PRES   REMARKS
JACKSON        CLOUDY    34  34 100 W5        29.63F WCI  30
CODY           MOCLDY    37  36  96 N9        29.61F WCI  30
GREYBULL       CLOUDY    45  38  76 NW8       29.58S
6HR MIN TEMP:  44; 6HR MAX TEMP:  53;

WORLAND        CLOUDY    44  40  85 NE6       29.57F
6HR MIN TEMP:  43; 6HR MAX TEMP:  51;

SHERIDAN       FAIR      31  28  89 NW3       29.62F
6HR MIN TEMP:  30; 6HR MAX TEMP:  38;

BUFFALO        CLOUDY    36  27  69 S8        29.61F WCI  30
6HR MIN TEMP:  35; 6HR MAX TEMP:  39;

GILLETTE       FAIR      29  27  92 CALM      29.63F
6HR MIN TEMP:  28; 6HR MAX TEMP:  43;

HULETT         FAIR      30  28  93 CALM      29.66S
NEWCASTLE      FAIR      32  32 100 E9        29.68F WCI  24

$$
WYZ014>020-022>026-101>103-270700-
CENTRAL WYOMING

CITY           SKY/WX    TMP DP  RH WIND       PRES   REMARKS
BIG PINEY      FAIR      32  31  96 NW3       29.64F
6HR MIN TEMP:  32; 6HR MAX TEMP:  45; 6HR PCP:  0.04;

PINEDALE       LGT SNOW  32  32 100 CALM      29.65F
DUBOIS         CLOUDY    32  30  93 W9        29.60F WCI  24
LANDER         CLOUDY    44  29  55 NW6       29.55F
6HR MIN TEMP:  43; 6HR MAX TEMP:  52;

RIVERTON       CLOUDY    44  30  57 SW8       29.57F
6HR MIN TEMP:  43; 6HR MAX TEMP:  51;

CASPER         FAIR      37  34  89 SW5       29.60F WCI  33
6HR MIN TEMP:  33; 6HR MAX TEMP:  52; 6HR PCP:  0.05;

DOUGLAS        FAIR      36  33  89 SE8       29.63F WCI  30
6HR MIN TEMP:  36; 6HR MAX TEMP:  53;


$$
WYZ021-027>030-104>119-270700-
SOUTHERN WYOMING

CITY           SKY/WX    TMP DP  RH WIND       PRES   REMARKS
EVANSTON       CLOUDY    34  34 100 SW9       29.71S WCI  27
6HR MIN TEMP:  33; 6HR MAX TEMP:  40; 6HR PCP: TRACE;

KEMMERER         N/A     32  32 100 CALM      29.69S
FORT BRIDGER   FAIR      35  35 100 W12       29.72F WCI  26
ROCK SPRINGS   CLOUDY    36  33  89 S8        29.67F WCI  30
6HR MIN TEMP:  36; 6HR MAX TEMP:  45; 6HR PCP: TRACE;

DIXON          LGT RAIN  39  34  83 S8        29.73S WCI  34
RAWLINS        FAIR      37  30  75 W9        29.66F WCI  30
6HR MIN TEMP:  37; 6HR MAX TEMP:  43; 6HR PCP: TRACE;

SARATOGA       CLOUDY    36  32  87 SE7       29.68F WCI  30
LARAMIE        CLOUDY    34  31  88 SW15      29.67F WCI  24
6HR MIN TEMP:  31; 6HR MAX TEMP:  40; 6HR PCP: TRACE;

CHEYENNE       CLOUDY    42  31  64 W9        29.67F
6HR MIN TEMP:  39; 6HR MAX TEMP:  48;

TORRINGTON     FAIR      38  37  97 E9        29.64F WCI  31
6HR MIN TEMP:  38; 6HR MAX TEMP:  50; 6HR PCP:  0.01;

PINE BLUFFS    CLOUDY    37  37 100 S7        29.68F WCI  32

$$




USA.gov is the U.S. government's official web portal to all federal, state and local government web resources and services.